VKG429 ENBR-EFHK

Flight info

Callsign VKG429
Flight time 1h 29m
Altitude 37000
Route GOKAB DCT OTKIL Y368 LAKUT
Aircraft A321/M-SDE3FGHIRWY/LB1

Departure

Time 2026-05-06 14:46
Airport Bergen Airport, Flesland (ENBR)

Arrival

Time 2026-05-06 16:15
Airport Helsinki Vantaa Airport (EFHK)
Time Latitude Longitude Altitude Speed Heading
2026-05-06 14:10 60.29160 5.22422 153 ft 0 kts 82°
2026-05-06 14:37 60.29159 5.22405 153 ft 4 kts 77°
2026-05-06 14:38 60.29149 5.22358 153 ft 4 kts 45°
2026-05-06 14:38 60.29128 5.22333 152 ft 4 kts 359°
2026-05-06 14:38 60.29121 5.22334 152 ft 0 kts 351°
2026-05-06 14:40 60.29122 5.22333 152 ft 1 kts 351°
2026-05-06 14:41 60.29153 5.22324 153 ft 8 kts 351°
2026-05-06 14:41 60.29222 5.22301 153 ft 11 kts 349°
2026-05-06 14:41 60.29294 5.22272 154 ft 10 kts 347°
2026-05-06 14:41 60.29364 5.22248 154 ft 10 kts 349°
2026-05-06 14:42 60.29409 5.22158 155 ft 10 kts 287°
2026-05-06 14:42 60.29462 5.22097 155 ft 9 kts 351°
2026-05-06 14:42 60.29524 5.22077 156 ft 10 kts 350°
2026-05-06 14:42 60.29609 5.22048 157 ft 15 kts 350°
2026-05-06 14:43 60.29723 5.22007 157 ft 19 kts 349°
2026-05-06 14:43 60.29867 5.21959 159 ft 22 kts 351°
2026-05-06 14:43 60.30021 5.21908 160 ft 22 kts 351°
2026-05-06 14:43 60.30169 5.21858 161 ft 21 kts 350°
2026-05-06 14:44 60.30311 5.21810 163 ft 20 kts 350°
2026-05-06 14:44 60.30442 5.21767 164 ft 19 kts 350°
2026-05-06 14:44 60.30563 5.21725 165 ft 16 kts 350°
2026-05-06 14:45 60.30655 5.21485 167 ft 11 kts 258°
2026-05-06 14:45 60.30615 5.21390 168 ft 9 kts 190°
2026-05-06 14:45 60.30596 5.21395 167 ft 0 kts 171°
2026-05-06 14:45 60.30521 5.21420 164 ft 41 kts 171°
2026-05-06 14:46 60.29984 5.21600 162 ft 111 kts 170°
2026-05-06 14:46 60.29037 5.21904 164 ft 161 kts 173°
2026-05-06 14:46 60.27920 5.22227 775 ft 160 kts 175°
2026-05-06 14:46 60.26812 5.22595 1529 ft 163 kts 174°
2026-05-06 14:47 60.25675 5.22987 2059 ft 173 kts 174°
2026-05-06 14:47 60.24430 5.23408 2379 ft 190 kts 174°
2026-05-06 14:47 60.23066 5.23863 2643 ft 208 kts 173°
2026-05-06 14:47 60.21563 5.24359 2870 ft 231 kts 173°
2026-05-06 14:48 60.19884 5.24906 3147 ft 257 kts 173°
2026-05-06 14:48 60.18098 5.25503 3965 ft 262 kts 173°
2026-05-06 14:48 60.16286 5.26124 4913 ft 265 kts 172°
2026-05-06 14:48 60.14461 5.26750 5833 ft 268 kts 172°
2026-05-06 14:49 60.12625 5.27536 6700 ft 274 kts 160°
2026-05-06 14:49 60.11035 5.29672 7511 ft 282 kts 131°
2026-05-06 14:49 60.10111 5.33114 8358 ft 286 kts 103°
2026-05-06 14:49 60.09992 5.36994 9228 ft 272 kts 89°
2026-05-06 14:50 60.09921 5.40904 9721 ft 287 kts 88°
2026-05-06 14:50 60.10450 5.44703 10395 ft 292 kts 56°
2026-05-06 14:50 60.11926 5.47450 11060 ft 293 kts 22°
2026-05-06 14:50 60.13878 5.48217 11741 ft 288 kts 349°
2026-05-06 14:51 60.15725 5.46908 12317 ft 290 kts 327°
2026-05-06 14:51 60.17626 5.45115 12494 ft 317 kts 340°
2026-05-06 14:51 60.19904 5.44777 12817 ft 343 kts
2026-05-06 14:51 60.22145 5.46599 13453 ft 360 kts 31°
2026-05-06 14:52 60.24142 5.49760 14165 ft 368 kts 36°
2026-05-06 14:52 60.26107 5.53138 14794 ft 375 kts 37°
2026-05-06 14:52 60.28073 5.56650 15431 ft 381 kts 37°
2026-05-06 14:52 60.30063 5.60249 16030 ft 388 kts 37°
2026-05-06 14:53 60.32090 5.63907 16613 ft 394 kts 37°
2026-05-06 14:53 60.34160 5.67613 17253 ft 400 kts 36°
2026-05-06 14:53 60.36263 5.71346 17906 ft 406 kts 35°
2026-05-06 14:53 60.38401 5.75117 18459 ft 412 kts 34°
2026-05-06 14:54 60.40580 5.78953 18976 ft 417 kts 34°
2026-05-06 14:54 60.42783 5.82832 19518 ft 422 kts 34°
2026-05-06 14:54 60.44971 5.86840 20014 ft 430 kts 41°
2026-05-06 14:54 60.46796 5.91766 20499 ft 444 kts 57°
2026-05-06 14:55 60.48001 5.97497 20972 ft 453 kts 72°
2026-05-06 14:55 60.48516 6.03824 21418 ft 459 kts 89°
2026-05-06 14:55 60.48273 6.10254 21871 ft 459 kts 105°
2026-05-06 14:55 60.47429 6.16491 22317 ft 460 kts 111°
2026-05-06 14:56 60.46514 6.22714 22735 ft 463 kts 111°
2026-05-06 14:56 60.45578 6.28995 23230 ft 467 kts 111°
2026-05-06 14:56 60.44637 6.35297 23641 ft 471 kts 111°
2026-05-06 14:56 60.43946 6.41577 23998 ft 478 kts 101°
2026-05-06 14:57 60.43718 6.48374 24397 ft 484 kts 90°
2026-05-06 14:57 60.43989 6.55198 24784 ft 487 kts 83°
2026-05-06 14:57 60.44400 6.62043 25168 ft 490 kts 84°
2026-05-06 14:57 60.44804 6.68897 25564 ft 492 kts 84°
2026-05-06 14:58 60.45200 6.75805 25897 ft 495 kts 85°
2026-05-06 14:58 60.45590 6.82741 26246 ft 498 kts 85°
2026-05-06 14:58 60.45847 6.87369 26476 ft 500 kts 85°
2026-05-06 14:58 60.46234 6.94384 26813 ft 502 kts 85°
2026-05-06 14:59 60.46618 7.01451 27170 ft 504 kts 85°
2026-05-06 14:59 60.47000 7.08518 27549 ft 506 kts 86°
2026-05-06 14:59 60.47381 7.15616 27882 ft 509 kts 86°
2026-05-06 14:59 60.47764 7.22786 28183 ft 512 kts 86°
2026-05-06 15:00 60.48145 7.29982 28488 ft 515 kts 86°
2026-05-06 15:00 60.48525 7.37216 28804 ft 518 kts 86°
2026-05-06 15:00 60.48904 7.44495 29080 ft 520 kts 86°
2026-05-06 15:00 60.49277 7.51806 29395 ft 522 kts 88°
2026-05-06 15:01 60.49646 7.59148 29711 ft 524 kts 88°
2026-05-06 15:01 60.50008 7.66509 30022 ft 526 kts 88°
2026-05-06 15:01 60.50368 7.73903 30271 ft 528 kts 88°
2026-05-06 15:01 60.50729 7.81337 30545 ft 529 kts 88°
2026-05-06 15:02 60.51087 7.88759 30910 ft 527 kts 88°
2026-05-06 15:02 60.51442 7.96141 31403 ft 525 kts 87°
2026-05-06 15:02 60.51792 8.03490 31848 ft 521 kts 87°
2026-05-06 15:02 60.52134 8.10788 32286 ft 518 kts 87°
2026-05-06 15:03 60.52466 8.18054 32627 ft 516 kts 87°
2026-05-06 15:03 60.52790 8.25220 32972 ft 516 kts 87°
2026-05-06 15:03 60.53116 8.32462 33344 ft 514 kts 87°
2026-05-06 15:03 60.53436 8.39675 33732 ft 512 kts 87°
2026-05-06 15:04 60.53751 8.46869 34087 ft 510 kts 87°
2026-05-06 15:04 60.54060 8.54031 34380 ft 508 kts 87°
2026-05-06 15:04 60.54364 8.61180 34660 ft 507 kts 87°
2026-05-06 15:04 60.54665 8.68311 34924 ft 506 kts 87°
2026-05-06 15:05 60.54965 8.75445 35158 ft 506 kts 87°
2026-05-06 15:05 60.55264 8.82542 35407 ft 505 kts 87°
2026-05-06 15:05 60.55557 8.89659 35613 ft 505 kts 88°
2026-05-06 15:05 60.55842 8.96748 35839 ft 505 kts 88°
2026-05-06 15:06 60.56122 9.03873 36047 ft 504 kts 88°
2026-05-06 15:06 60.56399 9.10982 36267 ft 503 kts 88°
2026-05-06 15:06 60.56673 9.18072 36486 ft 503 kts 88°
2026-05-06 15:06 60.56939 9.25158 36702 ft 502 kts 88°
2026-05-06 15:07 60.57198 9.32238 36887 ft 503 kts 88°
2026-05-06 15:07 60.57712 9.46416 36937 ft 502 kts 88°
2026-05-06 15:08 60.58215 9.60563 36931 ft 501 kts 88°
2026-05-06 15:08 60.58707 9.74687 36930 ft 501 kts 88°
2026-05-06 15:09 60.59179 9.88828 36924 ft 500 kts 88°
2026-05-06 15:09 60.59629 10.02965 36927 ft 501 kts 88°
2026-05-06 15:10 60.60067 10.17106 36930 ft 501 kts 89°
2026-05-06 15:10 60.60494 10.31263 36911 ft 501 kts 89°
2026-05-06 15:11 60.60909 10.45433 36921 ft 502 kts 89°
2026-05-06 15:11 60.61306 10.59645 36926 ft 503 kts 89°
2026-05-06 15:12 60.61688 10.73872 36971 ft 503 kts 89°
2026-05-06 15:12 60.62053 10.88102 36960 ft 503 kts 89°
2026-05-06 15:13 60.62416 11.02321 36927 ft 503 kts 89°
2026-05-06 15:13 60.62750 11.16573 36931 ft 504 kts 90°
2026-05-06 15:14 60.63065 11.30741 36942 ft 504 kts 90°
2026-05-06 15:14 60.63377 11.45019 36941 ft 504 kts 90°
2026-05-06 15:15 60.63667 11.59307 36946 ft 504 kts 90°
2026-05-06 15:15 60.63942 11.73489 36933 ft 504 kts 90°
2026-05-06 15:16 60.64205 11.87756 36940 ft 504 kts 90°
2026-05-06 15:16 60.64453 12.02056 36945 ft 504 kts 90°
2026-05-06 15:17 60.64689 12.16294 36953 ft 504 kts 90°
2026-05-06 15:17 60.64906 12.30498 36954 ft 504 kts 91°
2026-05-06 15:18 60.65112 12.44775 36929 ft 504 kts 91°
2026-05-06 15:18 60.65293 12.59067 36937 ft 504 kts 91°
2026-05-06 15:19 60.65465 12.73359 36939 ft 504 kts 91°
2026-05-06 15:19 60.65627 12.87654 36941 ft 504 kts 91°
2026-05-06 15:20 60.65770 13.01938 36937 ft 504 kts 92°
2026-05-06 15:20 60.65887 13.16224 36939 ft 504 kts 92°
2026-05-06 15:21 60.65996 13.30524 36935 ft 504 kts 92°
2026-05-06 15:21 60.66095 13.44807 36977 ft 504 kts 92°
2026-05-06 15:22 60.66179 13.58979 36923 ft 503 kts 92°
2026-05-06 15:22 60.66240 13.73262 36887 ft 503 kts 92°
2026-05-06 15:23 60.66285 13.87538 36911 ft 504 kts 92°
2026-05-06 15:23 60.66322 14.01926 36920 ft 504 kts 92°
2026-05-06 15:24 60.66340 14.16133 36929 ft 504 kts 93°
2026-05-06 15:24 60.66348 14.30426 36937 ft 504 kts 93°
2026-05-06 15:25 60.66342 14.44729 36911 ft 504 kts 93°
2026-05-06 15:25 60.66314 14.59027 36930 ft 504 kts 93°
2026-05-06 15:26 60.66270 14.73345 36942 ft 504 kts 93°
2026-05-06 15:26 60.66215 14.87621 36961 ft 504 kts 93°
2026-05-06 15:27 60.66151 15.01940 36964 ft 504 kts 94°
2026-05-06 15:27 60.66063 15.16239 36934 ft 504 kts 94°
2026-05-06 15:28 60.65952 15.30520 36960 ft 504 kts 94°
2026-05-06 15:28 60.65829 15.44814 36982 ft 503 kts 94°
2026-05-06 15:29 60.65700 15.59079 36984 ft 503 kts 95°
2026-05-06 15:29 60.65605 15.68847 36988 ft 503 kts 95°
2026-05-06 15:30 60.65447 15.82985 36965 ft 503 kts 95°
2026-05-06 15:30 60.65275 15.97169 36970 ft 503 kts 95°
2026-05-06 15:31 60.65093 16.11437 36975 ft 504 kts 95°
2026-05-06 15:31 60.64893 16.25722 36988 ft 504 kts 96°
2026-05-06 15:32 60.64546 16.47144 36990 ft 504 kts 96°
2026-05-06 15:32 60.64302 16.61424 36965 ft 504 kts 96°
2026-05-06 15:33 60.64044 16.75718 36975 ft 505 kts 96°
2026-05-06 15:33 60.63771 16.90020 36989 ft 505 kts 96°
2026-05-06 15:34 60.63489 17.04339 36984 ft 506 kts 96°
2026-05-06 15:34 60.63192 17.18644 36999 ft 506 kts 96°
2026-05-06 15:35 60.62861 17.32947 36986 ft 505 kts 97°
2026-05-06 15:35 60.62520 17.47225 37009 ft 504 kts 97°
2026-05-06 15:36 60.62184 17.61485 37012 ft 504 kts 97°
2026-05-06 15:36 60.61835 17.75730 37015 ft 503 kts 97°
2026-05-06 15:37 60.61455 17.89948 37015 ft 503 kts 97°
2026-05-06 15:37 60.61056 18.04148 36996 ft 503 kts 97°
2026-05-06 15:38 60.60644 18.18360 37006 ft 503 kts 98°
2026-05-06 15:38 60.60218 18.32586 37018 ft 503 kts 98°
2026-05-06 15:39 60.59778 18.46710 37017 ft 503 kts 98°
2026-05-06 15:39 60.59324 18.60926 37026 ft 503 kts 98°
2026-05-06 15:40 60.58862 18.75133 37000 ft 504 kts 98°
2026-05-06 15:40 60.58382 18.89366 37029 ft 504 kts 98°
2026-05-06 15:41 60.57881 19.03588 37041 ft 505 kts 98°
2026-05-06 15:41 60.57368 19.17841 37040 ft 505 kts 98°
2026-05-06 15:42 60.56840 19.32093 37014 ft 505 kts 98°
2026-05-06 15:42 60.56290 19.46343 37022 ft 505 kts 98°
2026-05-06 15:43 60.55726 19.60577 37033 ft 505 kts 98°
2026-05-06 15:43 60.55247 19.72406 37038 ft 506 kts 99°
2026-05-06 15:44 60.54659 19.86639 37041 ft 505 kts 99°
2026-05-06 15:44 60.53956 20.03178 37044 ft 505 kts 99°
2026-05-06 15:45 60.53436 20.15104 37048 ft 505 kts 99°
2026-05-06 15:45 60.52800 20.29310 37049 ft 505 kts 99°
2026-05-06 15:46 60.52151 20.43518 37048 ft 505 kts 99°
2026-05-06 15:46 60.51493 20.57709 37049 ft 505 kts 99°
2026-05-06 15:47 60.50812 20.71896 37021 ft 505 kts 100°
2026-05-06 15:47 60.50108 20.86071 37038 ft 505 kts 100°
2026-05-06 15:48 60.49400 21.00225 37051 ft 504 kts 100°
2026-05-06 15:48 60.48682 21.14381 37052 ft 504 kts 100°
2026-05-06 15:49 60.47942 21.28505 37049 ft 503 kts 100°
2026-05-06 15:49 60.47575 21.35568 36553 ft 503 kts 98°
2026-05-06 15:49 60.47462 21.42679 35864 ft 507 kts 95°
2026-05-06 15:50 60.47422 21.49737 35194 ft 508 kts 96°
2026-05-06 15:50 60.47375 21.57003 34515 ft 510 kts 96°
2026-05-06 15:50 60.47325 21.64125 33807 ft 514 kts 97°
2026-05-06 15:50 60.47270 21.71474 33120 ft 514 kts 97°
2026-05-06 15:51 60.47215 21.78603 32562 ft 511 kts 97°
2026-05-06 15:51 60.47156 21.85781 32025 ft 508 kts 97°
2026-05-06 15:51 60.47093 21.92871 31475 ft 504 kts 98°
2026-05-06 15:51 60.47026 21.99954 30862 ft 500 kts 98°
2026-05-06 15:52 60.46954 22.06980 30255 ft 496 kts 98°
2026-05-06 15:52 60.46881 22.13928 29552 ft 492 kts 98°
2026-05-06 15:52 60.46805 22.20831 28973 ft 485 kts 98°
2026-05-06 15:52 60.46727 22.27634 28383 ft 480 kts 98°
2026-05-06 15:53 60.46648 22.34349 27784 ft 475 kts 97°
2026-05-06 15:53 60.46570 22.40989 27174 ft 470 kts 97°
2026-05-06 15:53 60.46488 22.47594 26522 ft 465 kts 97°
2026-05-06 15:53 60.46399 22.54100 25889 ft 460 kts 96°
2026-05-06 15:54 60.46302 22.60540 25266 ft 455 kts 96°
2026-05-06 15:54 60.46200 22.66931 24665 ft 450 kts 96°
2026-05-06 15:54 60.46096 22.73248 24048 ft 446 kts 96°
2026-05-06 15:54 60.45992 22.79487 23439 ft 442 kts 95°
2026-05-06 15:55 60.45887 22.85678 22724 ft 437 kts 95°
2026-05-06 15:55 60.45783 22.91786 22097 ft 432 kts 95°
2026-05-06 15:55 60.45683 22.97821 21486 ft 426 kts 95°
2026-05-06 15:55 60.45584 23.03800 20880 ft 421 kts 95°
2026-05-06 15:56 60.45481 23.09693 20312 ft 416 kts 95°
2026-05-06 15:56 60.45375 23.15519 19740 ft 411 kts 95°
2026-05-06 15:56 60.45263 23.21268 19188 ft 407 kts 95°
2026-05-06 15:56 60.45147 23.26963 18644 ft 402 kts 95°
2026-05-06 15:57 60.45032 23.32584 18082 ft 398 kts 95°
2026-05-06 15:57 60.44919 23.38153 17480 ft 393 kts 94°
2026-05-06 15:57 60.44806 23.43571 16902 ft 388 kts 94°
2026-05-06 15:57 60.44693 23.49015 16348 ft 384 kts 94°
2026-05-06 15:58 60.44578 23.54387 15780 ft 380 kts 94°
2026-05-06 15:58 60.44462 23.59712 15214 ft 377 kts 93°
2026-05-06 15:58 60.44345 23.64986 14685 ft 373 kts 93°
2026-05-06 15:58 60.44224 23.70207 14172 ft 369 kts 92°
2026-05-06 15:59 60.44101 23.75320 13918 ft 356 kts 92°
2026-05-06 15:59 60.43982 23.80207 13657 ft 344 kts 92°
2026-05-06 15:59 60.43866 23.85008 13249 ft 337 kts 92°
2026-05-06 15:59 60.43922 23.89719 12809 ft 331 kts 82°
2026-05-06 16:00 60.44191 23.94308 12346 ft 326 kts 82°
2026-05-06 16:00 60.44456 23.98836 11906 ft 321 kts 82°
2026-05-06 16:00 60.44713 24.03295 11485 ft 316 kts 82°
2026-05-06 16:00 60.44964 24.07669 11054 ft 311 kts 82°
2026-05-06 16:01 60.45211 24.11992 10636 ft 306 kts 83°
2026-05-06 16:01 60.45451 24.16240 10225 ft 301 kts 83°
2026-05-06 16:01 60.45689 24.20428 9822 ft 296 kts 83°
2026-05-06 16:01 60.45922 24.24549 9386 ft 294 kts 83°
2026-05-06 16:02 60.46123 24.28647 8983 ft 291 kts 84°
2026-05-06 16:02 60.46290 24.32721 8536 ft 288 kts 85°
2026-05-06 16:02 60.46438 24.36737 8124 ft 284 kts 85°
2026-05-06 16:02 60.46583 24.40720 7740 ft 283 kts 85°
2026-05-06 16:03 60.46729 24.44684 7374 ft 280 kts 85°
2026-05-06 16:03 60.46872 24.48595 7107 ft 275 kts 85°
2026-05-06 16:03 60.47011 24.52301 6977 ft 264 kts 84°
2026-05-06 16:03 60.47149 24.55924 6849 ft 253 kts 84°
2026-05-06 16:04 60.47281 24.59433 6667 ft 246 kts 86°
2026-05-06 16:04 60.47223 24.62873 6394 ft 244 kts 97°
2026-05-06 16:04 60.46932 24.66242 6074 ft 243 kts 99°
2026-05-06 16:04 60.46632 24.69561 5900 ft 233 kts 100°
2026-05-06 16:05 60.46348 24.72707 5583 ft 230 kts 100°
2026-05-06 16:05 60.46062 24.75880 5284 ft 227 kts 99°
2026-05-06 16:05 60.45776 24.79063 5099 ft 229 kts 99°
2026-05-06 16:05 60.45494 24.82235 4926 ft 230 kts 99°
2026-05-06 16:06 60.45210 24.85425 4743 ft 229 kts 99°
2026-05-06 16:06 60.44953 24.88593 4564 ft 227 kts 94°
2026-05-06 16:06 60.44992 24.91776 4424 ft 226 kts 80°
2026-05-06 16:06 60.45384 24.94835 4302 ft 220 kts 66°
2026-05-06 16:07 60.46054 24.97470 4142 ft 208 kts 54°
2026-05-06 16:07 60.46943 24.99679 4022 ft 197 kts 45°
2026-05-06 16:07 60.47858 25.01681 3913 ft 192 kts 45°
2026-05-06 16:07 60.48763 25.03691 3789 ft 190 kts 45°
2026-05-06 16:08 60.49651 25.05668 3660 ft 189 kts 45°
2026-05-06 16:08 60.50541 25.07649 3531 ft 190 kts 46°
2026-05-06 16:08 60.51357 25.09698 3394 ft 192 kts 58°
2026-05-06 16:08 60.51633 25.12335 3318 ft 195 kts 95°
2026-05-06 16:09 60.51130 25.14860 3269 ft 195 kts 128°
2026-05-06 16:09 60.50282 25.16998 3223 ft 194 kts 129°
2026-05-06 16:09 60.49434 25.19140 3169 ft 195 kts 129°
2026-05-06 16:09 60.48587 25.21282 3065 ft 194 kts 129°
2026-05-06 16:10 60.47635 25.23188 2998 ft 192 kts 149°
2026-05-06 16:10 60.46384 25.24062 3005 ft 190 kts 177°
2026-05-06 16:10 60.45095 25.23720 3012 ft 186 kts 204°
2026-05-06 16:10 60.44043 25.22281 3008 ft 182 kts 229°
2026-05-06 16:11 60.43186 25.20370 3017 ft 184 kts 230°
2026-05-06 16:11 60.42372 25.18553 2892 ft 165 kts 230°
2026-05-06 16:11 60.41635 25.16910 2729 ft 151 kts 229°
2026-05-06 16:11 60.40954 25.15392 2528 ft 143 kts 230°
2026-05-06 16:12 60.40299 25.13936 2346 ft 141 kts 230°
2026-05-06 16:12 60.39644 25.12480 2154 ft 139 kts 229°
2026-05-06 16:12 60.38999 25.11046 1958 ft 136 kts 229°
2026-05-06 16:12 60.38360 25.09629 1778 ft 133 kts 229°
2026-05-06 16:13 60.37732 25.08235 1588 ft 134 kts 229°
2026-05-06 16:13 60.37106 25.06846 1403 ft 133 kts 229°
2026-05-06 16:13 60.36492 25.05485 1220 ft 134 kts 229°
2026-05-06 16:13 60.35871 25.04110 1031 ft 131 kts 229°
2026-05-06 16:14 60.35253 25.02745 840 ft 132 kts 227°
2026-05-06 16:14 60.34633 25.01372 657 ft 134 kts 227°
2026-05-06 16:14 60.34012 24.99993 506 ft 132 kts 227°
2026-05-06 16:14 60.33402 24.98625 314 ft 130 kts 225°
2026-05-06 16:15 60.32788 24.97280 196 ft 126 kts 225°
2026-05-06 16:15 60.32296 24.96210 165 ft 76 kts 227°
2026-05-06 16:15 60.32065 24.95698 161 ft 25 kts 228°